Weather History for Sheridan, WY

Change the Weather History Date:

Sunday, November 18, 2012

  Actual Average Record
Temperature  
Mean Temperature 36 °F 31 °F  
Max Temperature 47 °F 45 °F 74 °F (2008)
Min Temperature 24 °F 18 °F -3 °F (1978)
Degree Days  
Heating Degree Days 29 34  
Month to date heating degree days 523 531  
Since 1 July heating degree days 1297 1439  
Cooling Degree Days 0 0  
Month to date cooling degree days 0 0  
Year to date cooling degree days 664 419  
Moisture  
Dew Point 30 °F    
Average Humidity 79    
Maximum Humidity 92    
Minimum Humidity 65    
Precipitation  
Precipitation T in 0.02 in 0.49 in (1953)
Month to date precipitation 0.42 0.45  
Year to date precipitation 8.36 13.34  
Sea Level Pressure  
Sea Level Pressure 29.91 in    
Wind  
Wind Speed 3 mph (WSW)    
Max Wind Speed 14 mph    
Max Gust Speed 18 mph    
Visibility 10 miles    
Events Rain    
T = Trace of Precipitation, MM = Missing Value Source: NWS Daily Summary

Daily Weather History Graph

Daily Weather History Graph

Search for Another Location

Airport:

Trip Planner

Search our weather history database for the weather conditions in past years. The results will help you decide how hot, cold, wet, or windy it might be!

Date:

Astronomy

Nov. 18, 2012 Rise Set
Actual Time 7:09 AM MST 4:36 PM MST
Civil Twilight 6:37 AM MST 5:08 PM MST
Nautical Twilight 6:02 AM MST 5:43 PM MST
Astronomical Twilight 5:27 AM MST 6:18 PM MST
Moon 11:35 AM MST (11/18) 10:03 PM MST (11/18)
Length of Visible Light 10h 30m
Length of Day
9h 26m
Waxing Crescent, 31% of the Moon is Illuminated
Nov 18
Waxing Crescent
Nov 20
First Quarter
Nov 28
Full
Dec 6
Last Quarter
Dec 13
New

Hourly Weather History & Observations

Time (MST) Temp. Windchill Dew Point Humidity Pressure Visibility Wind Dir Wind Speed Gust Speed Precip Events Conditions
12:53 AM 30.0 °F 22.4 °F 25.0 °F 82% 29.84 in 10.0 mi NNE 8.1 mph - N/A   Clear
1:53 AM 30.9 °F 27.5 °F 25.0 °F 79% 29.81 in 10.0 mi Variable 3.5 mph - N/A   Clear
2:53 AM 28.0 °F - 24.1 °F 85% 29.81 in 10.0 mi Calm Calm - N/A   Clear
3:53 AM 25.0 °F 19.3 °F 21.9 °F 88% 29.81 in 10.0 mi SW 4.6 mph - N/A   Clear
4:53 AM 25.0 °F - 23.0 °F 92% 29.84 in 10.0 mi Calm Calm - N/A   Clear
5:53 AM 26.1 °F 19.4 °F 23.0 °F 88% 29.83 in 10.0 mi South 5.8 mph - N/A   Clear
6:53 AM 28.9 °F 21.9 °F 26.1 °F 89% 29.82 in 10.0 mi SSW 6.9 mph - N/A   Clear
7:53 AM 33.1 °F - 28.0 °F 82% 29.83 in 10.0 mi North - - N/A   Clear
8:53 AM 32.0 °F 26.4 °F 28.9 °F 88% 29.84 in 10.0 mi North 5.8 mph - N/A   Clear
9:53 AM 37.0 °F - 30.9 °F 79% 29.83 in 10.0 mi Calm Calm - N/A   Clear
10:53 AM 37.0 °F - 33.1 °F 86% 29.82 in 10.0 mi Calm Calm - N/A   Partly Cloudy
11:53 AM 39.9 °F 36.7 °F 32.0 °F 73% 29.82 in 10.0 mi NW 4.6 mph - N/A   Scattered Clouds
12:53 PM 41.0 °F - 33.1 °F 73% 29.83 in 10.0 mi Calm Calm - N/A   Clear
1:53 PM 43.0 °F - 33.1 °F 68% 29.85 in 10.0 mi Calm Calm - N/A   Clear
2:53 PM 44.1 °F 42.5 °F 33.1 °F 65% 29.88 in 10.0 mi SSE 3.5 mph - N/A   Clear
3:53 PM 41.0 °F - 34.0 °F 76% 29.93 in 10.0 mi Calm Calm - N/A   Clear
4:53 PM 43.0 °F 36.4 °F 33.1 °F 68% 29.98 in 10.0 mi WNW 12.7 mph - N/A   Clear
5:53 PM 44.1 °F 39.5 °F 34.0 °F 68% 30.00 in 10.0 mi WNW 8.1 mph - N/A   Mostly Cloudy
6:53 PM 41.0 °F 38.0 °F 33.1 °F 73% 30.03 in 10.0 mi South 4.6 mph - N/A   Mostly Cloudy
7:53 PM 39.0 °F - 33.1 °F 79% 30.04 in 10.0 mi Calm Calm - N/A   Scattered Clouds
8:53 PM 39.9 °F - 34.0 °F 79% 30.06 in 10.0 mi Calm Calm - 0.00 in Rain Light Rain
9:53 PM 42.1 °F - 34.0 °F 73% 30.08 in 10.0 mi Calm Calm - 0.00 in Rain Light Rain
10:53 PM 37.0 °F 33.3 °F 33.1 °F 86% 30.09 in 10.0 mi SW 4.6 mph - 0.00 in   Overcast
11:53 PM 36.0 °F 32.1 °F 33.1 °F 89% 30.09 in 10.0 mi NNE 4.6 mph - N/A   Overcast